Location: Córrego Montividiu
(13.2496°S, 48.8603°W)
Time: 18:55:46
(UTC+00:00)

BLOCK DM-SL R/B - Pass Details

Date: 11 March 2026
Orbit: 283 x 30643 km, 2.8° (Epoch: 17 April)

Event Time Altitude Azimuth Distance (km) Brightness Sun altitude
Rises 22:13:05 0° 283° (WNW) 4,767 8.1 -10.8°
Reaches altitude 10° 22:19:01 10° 310° (NW) 1,980 5.3 -12.2°
Maximum altitude 22:20:47 13° 338° (NNW) 1,404 4.1 -12.7°
Drops below altitude 10° 22:22:04 10° 10° (N) 1,318 3.6 -13.0°
Enters shadow 22:22:30 - 20° (NNE) 1,376 3.6 -13.1°
